Location: Unspecified
(42.9300°N, 71.1866°W)
Time: 05:02:04
(UTC-04:00)

Okean 3 - Visible Passes

Search period start: 01 November 2014 00:00
Search period end: 10 November 2014 23:00
Orbit: 583 x 609 km, 82.5° (Epoch: 31 October)

Date Brightness Start Highest point End Pass type
(mag) Time Alt. Az. Time Alt. Az. Time Alt. Az.
03 Nov 6.7 04:44:47 10° NE 04:46:06 11° ENE 04:47:24 10° E visible
04 Nov 6.4 04:53:36 10° NNE 04:56:24 17° ENE 04:59:11 10° ESE visible
04 Nov 5.8 18:57:49 10° SSW 18:58:31 15° SSW 18:58:31 15° SSW visible
05 Nov 5.8 05:03:06 10° NNE 05:06:39 25° ENE 05:10:10 10° SE visible
05 Nov 5.5 17:32:57 10° ESE 17:33:28 12° ESE 17:33:28 12° ESE visible
05 Nov 5.2 19:08:05 10° SSW 19:10:15 27° SW 19:10:15 27° SW visible
06 Nov 5.0 05:12:51 10° N 05:16:50 39° ENE 05:20:47 10° SSE visible
06 Nov 4.6 17:41:53 10° SE 17:45:12 22° E 17:45:12 22° E visible
06 Nov 5.3 19:18:34 10° SW 19:21:59 30° W 19:21:59 30° W visible
07 Nov 4.0 05:22:46 10° N 05:26:59 62° E 05:31:08 10° SSE visible
07 Nov 4.1 17:51:17 10° SSE 17:55:11 34° E 17:56:54 24° NE visible
07 Nov 5.9 19:29:22 10° WSW 19:32:38 21° WNW 19:33:41 19° NW visible
08 Nov 3.4 05:32:48 10° N 05:37:03 82° W 05:41:14 10° S visible
08 Nov 3.5 18:00:58 10° S 18:05:10 54° E 18:08:30 16° NNE visible
08 Nov 6.5 19:40:38 10° W 19:42:54 14° WNW 19:45:10 10° NW visible
09 Nov 6.5 04:07:07 10° NE 04:09:21 14° ENE 04:11:35 10° E visible
09 Nov 3.6 05:42:59 10° NNW 05:47:05 50° W 05:51:08 10° S visible
09 Nov 3.4 18:10:53 10° S 18:15:12 86° E 18:19:31 10° N visible
10 Nov 6.0 04:16:23 10° NNE 04:19:37 21° ENE 04:22:48 10° ESE visible
10 Nov 4.2 05:53:18 10° NNW 05:57:03 32° W 06:00:46 10° SSW visible
10 Nov 4.0 18:21:01 10° SSW 18:25:17 60° W 18:29:33 10° N visible
